[[{"header":{"parameterUnit":"m.s-1","parameterCategory":1,"la1":30.2992,"la2":30.254,"lo1":-89.0895,"lo2":-89.0443,"dy":0.0025,"dx":0.0025,"nx":19,"ny":19,"refTime":"2026-03-21T21:00:00:Z","depth":0,"parameterNumber":2,"parameterNumberName":"U-component_of_WINDS"},"data":[0,0,0,2.315,2.3152,2.3283,2.3283,2.3449,2.3451,0,0,0,0,0,0,0,0,0,0,0,2.3109,2.311,2.3149,2.3153,2.3283,2.3283,2.3449,2.3451,0,0,0,0,0,0,0,0,0,0,0,2.3109,2.311,2.3111,2.3153,2.3282,2.3283,2.3449,2.3351,0,0,0,0,0,0,0,0,0,0,2.3225,2.3185,2.311,2.3111,2.3154,2.3282,2.3283,2.3346,2.3357,2.3389,0,2.3416,0,2.3436,2.3462,2.3462,0,0,0,2.3155,2.3176,2.3213,2.3111,2.3155,2.3282,2.3224,2.3352,2.3364,2.3404,2.3419,2.3425,2.3439,2.3463,2.3463,2.364,2.3641,0,0,2.3147,2.3132,2.3204,2.322,2.3198,2.322,2.3228,2.336,2.3376,2.3419,2.3429,2.3441,2.3464,2.3465,2.3639,2.364,0,0,0,2.3125,2.3127,2.316,2.3214,2.3237,2.3224,2.3233,2.337,2.3382,2.3431,2.3443,2.3465,2.3467,2.3639,2.364,2.366,0,0,0,2.3121,2.3114,2.3157,2.3149,2.3234,2.3305,2.324,2.3373,2.3388,2.3442,2.3465,2.3468,2.3638,2.3639,2.3658,2.3673,0,0,0,2.3101,2.3112,2.313,2.3148,2.3203,2.3303,2.3323,2.3376,2.3396,2.3462,2.3469,2.3637,2.3639,2.3656,2.367,2.3715,0,0,0,2.3076,2.3147,2.313,2.3214,2.3202,2.3314,2.3322,2.3407,2.3466,2.3465,2.3638,2.364,2.3655,2.3668,2.3713,2.3751,2.3765,0,0,2.3157,2.3156,2.3207,2.3195,2.3306,2.3295,2.3411,2.348,2.3502,2.3593,2.3598,2.3659,2.367,2.3715,2.3848,2.3859,0,0,0,2.3227,2.3264,2.3296,2.3351,2.3405,2.3453,2.3507,2.3533,2.3611,2.3545,2.3688,2.3695,2.3722,2.3741,2.375,2.3775,2.3647,2.3647,2.3647,2.332,2.3342,2.3428,2.3466,2.3519,2.3573,2.3619,2.3664,2.3672,2.3705,2.3732,2.3811,2.3832,2.3839,2.3864,2.3754,2.3754,2.3754,2.3754,2.3441,2.3496,2.3503,2.3589,2.3613,2.3686,2.3741,2.3744,2.3817,2.3792,2.3817,2.3788,2.3851,2.3874,2.3756,2.3756,2.3755,2.3755,2.3755,2.3504,2.3534,2.3564,2.3645,2.3706,2.3743,2.3812,2.3831,2.385,2.3875,2.3906,2.3906,2.3909,2.3888,2.3889,2.3889,2.3889,2.3889,2.389,2.3558,2.3591,2.3646,2.3709,2.3746,2.3799,2.3854,2.3893,2.3941,2.395,2.395,2.3955,2.3852,2.3826,2.3894,2.3893,2.3893,2.3892,2.3892,2.3673,2.365,2.3735,2.3773,2.3849,2.3908,2.3932,2.4008,2.4043,2.4077,2.4076,2.3997,2.3998,2.3991,2.3969,2.407,2.407,2.407,2.407,2.3727,2.3729,2.382,2.3879,2.394,2.3969,2.4066,2.411,2.4152,2.4175,2.4164,2.4137,2.4128,2.4135,2.4124,2.4105,2.4238,2.4238,2.4238,2.3799,2.3808,2.3885,2.3925,2.3985,2.4038,2.4129,2.4198,2.4242,2.4245,2.4194,2.4187,2.4144,2.4129,2.4131,2.4115,2.4079,0,0]},{"header":{"parameterUnit":"m.s-1","parameterCategory":1,"la1":30.2992,"la2":30.254,"lo1":-89.0895,"lo2":-89.0443,"dy":0.0025,"dx":0.0025,"nx":19,"ny":19,"refTime":"2026-03-21T21:00:00:Z","depth":0,"parameterNumber":3,"parameterNumberName":"V-component_of_WINDS"},"data":[0,0,0,1.376,1.3759,1.3723,1.3723,1.3684,1.3684,0,0,0,0,0,0,0,0,0,0,0,1.3776,1.3776,1.376,1.3759,1.3723,1.3723,1.3684,1.3684,0,0,0,0,0,0,0,0,0,0,0,1.3776,1.3776,1.3776,1.3759,1.3723,1.3723,1.3684,1.3708,0,0,0,0,0,0,0,0,0,0,1.3742,1.3762,1.3776,1.3776,1.3759,1.3723,1.3723,1.371,1.3707,1.3704,0,1.3703,0,1.3693,1.3682,1.3682,0,0,0,1.3755,1.3765,1.375,1.3776,1.3758,1.3723,1.3738,1.3708,1.3705,1.37,1.3703,1.3701,1.3693,1.3682,1.3681,1.3681,1.3681,0,0,1.3757,1.3772,1.3752,1.3749,1.3756,1.3739,1.3737,1.3706,1.3709,1.3703,1.37,1.3692,1.3681,1.3681,1.3681,1.3681,0,0,0,1.3765,1.3773,1.376,1.375,1.3744,1.3738,1.3736,1.3711,1.3705,1.37,1.3691,1.3681,1.3681,1.368,1.3681,1.3707,0,0,0,1.3766,1.3778,1.3761,1.377,1.3744,1.3727,1.3741,1.3707,1.3703,1.3692,1.3681,1.3681,1.368,1.368,1.3705,1.3716,0,0,0,1.3776,1.378,1.3776,1.3771,1.3756,1.3727,1.3719,1.3706,1.3698,1.3682,1.368,1.368,1.368,1.3704,1.3714,1.3721,0,0,0,1.3791,1.3799,1.3777,1.3783,1.3756,1.3744,1.3719,1.3709,1.3698,1.3681,1.368,1.3681,1.3704,1.3713,1.372,1.373,1.3735,0,0,1.381,1.3802,1.3804,1.3783,1.3779,1.3748,1.3747,1.3721,1.3704,1.3689,1.3689,1.3706,1.3714,1.3721,1.376,1.3765,0,0,0,1.3815,1.3817,1.3813,1.3803,1.3785,1.377,1.3743,1.3734,1.372,1.37,1.3709,1.3714,1.3717,1.3721,1.3725,1.3727,1.3683,1.3683,1.3683,1.3864,1.3844,1.3846,1.3822,1.3813,1.3786,1.3776,1.3759,1.3739,1.3742,1.3738,1.3764,1.3769,1.3772,1.3774,1.3741,1.3741,1.3741,1.3741,1.389,1.3889,1.3865,1.3859,1.3837,1.3831,1.3805,1.3792,1.3782,1.3766,1.3767,1.3752,1.3778,1.3779,1.3743,1.3742,1.3742,1.3742,1.3742,1.392,1.3916,1.3905,1.389,1.3881,1.3855,1.3848,1.3827,1.3808,1.381,1.3803,1.3803,1.38,1.3808,1.3808,1.3808,1.3808,1.3808,1.3808,1.3955,1.3942,1.3939,1.3921,1.3913,1.3899,1.3872,1.3863,1.3847,1.3833,1.3833,1.3814,1.3784,1.3778,1.381,1.3809,1.3809,1.3809,1.3809,1.399,1.3979,1.3975,1.3967,1.3943,1.3935,1.391,1.3893,1.3882,1.3879,1.3859,1.3841,1.3831,1.3828,1.3822,1.3864,1.3864,1.3864,1.3864,1.4016,1.4009,1.4,1.3989,1.3975,1.3951,1.3946,1.3925,1.3901,1.3893,1.3883,1.3874,1.3872,1.3863,1.3859,1.3854,1.3902,1.3902,1.3902,1.4036,1.4027,1.4027,1.4005,1.3986,1.3969,1.3963,1.395,1.392,1.3903,1.3886,1.3884,1.3869,1.3865,1.3848,1.3843,1.3832,0,0]}]]